weather.gov     
National Weather Service

Terminal Aerodrome Forecast
NWS Homepage
This page is being discontinued on March 12, 2014.
The same data is available at this site. Please update your bookmarks.
Thank you, and we apologize for the inconvenience.
Please send an email to SR-SRH.Webmaster@noaa.gov with any concerns.


Current Version
Previous Version:    01  02  03  04  05  06  07  08  09  10  11  12  13  14  15  16  17  18  19  20  21  22  23  24  25  26  27  28  29  30  
   31  
[Printable]
337
FTAK31 PAJN 301100
TAFAKT
TAF
PAKT 301121Z 3012/3112 33009KT P6SM VCSH SCT003 BKN045
      TEMPO 3012/3016 6SM BR SCT003
     FM301800 32005KT P6SM BKN040
     FM310000 32005KT P6SM SKC
      AMD LTD TO CLD VIS AND WIND 3012/3015=


U.S. Dept. of Commerce
NOAA National Weather Service
1325 East West Highway
Silver Spring, MD 20910
E-mail: w-nws.webmaster@noaa.gov
Page last modified: May 16, 2007
NATIONAL WEATHER SERVICE: for Safety, for Work, for Fun - FOR LIFE